Location: Boullarre
(49.1305°N, 3.0047°E)
Time: 00:14:31
(UTC+00:00)

Cosmos 2333 - Pass Details

Date: 03 February 2023
Orbit: 828 x 867 km, 70.9° (Epoch: 21 March)

Event Time Altitude Azimuth Distance (km) Brightness Sun altitude
Rises 18:33:02 0° 188° (S) 3,359 7.5 -17.4°
Reaches altitude 10° 18:35:31 10° 182° (S) 2,433 6.7 -17.8°
Maximum altitude 18:40:50 48° 110° (ESE) 1,088 4.4 -18.7°
Enters shadow 18:43:21 29° 54° (NE) 1,506 5.0 -19.1°
